Thermal, CA

8:38 PM PST on February 21, 2017 (GMT -0800)
Desert Resorts Regional

Weather History for KTRM - April, 2013

Change the Weather History Date:

Saturday, April 20, 2013

  Actual Average Record
Temperature  
Mean Temperature 70 °F 71 °F  
Max Temperature 95 °F 88 °F 106 °F (1958)
Min Temperature 45 °F 54 °F 40 °F (2000)
Degree Days  
Heating Degree Days 0 0  
Month to date heating degree days 2 19  
Since 1 July heating degree days 1124 1176  
Cooling Degree Days 5 7  
Month to date cooling degree days 130 101  
Year to date cooling degree days 292 175  
Growing Degree Days 20 (Base 50)    
Moisture  
Dew Point 29 °F    
Average Humidity 33    
Maximum Humidity 58    
Minimum Humidity 8    
Precipitation  
Precipitation 0.00 in 0.00 in 0.02 in (1957)
Month to date precipitation 0.00 0.05  
Year to date precipitation 0.44 1.76  
Since 1 July precipitation 2.62  
Snow  
Snow 0.00 in - - ()
Month to date snowfall 0.0  
Year to date snowfall 0.0  
Snow Depth 0.00 in    
Sea Level Pressure  
Sea Level Pressure 29.87 in    
Wind  
Wind Speed 5 mph (NNE)    
Max Wind Speed 14 mph    
Max Gust Speed 21 mph    
Visibility 10 miles    
Events      
T = Trace of Precipitation, MM = Missing Value Source: NWS Daily Summary

Daily Weather History Graph

Daily Weather History Graph

Search for Another Location

Airport or City:

Trip Planner

Search our weather history database for the weather conditions in past years. The results will help you decide how hot, cold, wet, or windy it might be!

Date:

Astronomy

Apr. 20, 2013 Rise Set
Actual Time 6:07 AM PDT 7:19 PM PDT
Civil Twilight 5:41 AM PDT 7:45 PM PDT
Nautical Twilight 5:11 AM PDT 8:16 PM PDT
Astronomical Twilight 4:39 AM PDT 8:48 PM PDT
Moon 2:22 PM PDT (4/20) 2:44 AM PDT (4/20)
Length of Visible Light 14h 03m
Length of Day
13h 11m
Waxing Gibbous, 72% of the Moon is Illuminated
Apr 20
Waxing Gibbous
Apr 25
Full
May 2
Last Quarter
May 9
New
May 17
First Quarter

Hourly Weather History & Observations

Time (PDT) Temp. Dew Point Humidity Pressure Visibility Wind Dir Wind Speed Gust Speed Precip Events Conditions
12:52 AM 50.0 °F 32.0 °F 50% 29.92 in 10.0 mi NNE 3.5 mph - N/A   Clear
1:52 AM 51.1 °F 32.0 °F 48% 29.89 in 10.0 mi WNW 4.6 mph - N/A   Clear
2:52 AM 53.1 °F 32.0 °F 45% 29.88 in 10.0 mi West 4.6 mph - N/A   Clear
3:52 AM 53.1 °F 30.9 °F 43% 29.87 in 10.0 mi North 3.5 mph - N/A   Clear
4:52 AM 50.0 °F 30.9 °F 48% 29.86 in 10.0 mi Calm Calm - N/A   Clear
5:52 AM 46.9 °F 32.0 °F 56% 29.87 in 10.0 mi NNW 3.5 mph - N/A   Clear
6:52 AM 51.1 °F 33.1 °F 50% 29.89 in 10.0 mi North 5.8 mph - N/A   Clear
7:52 AM 66.9 °F 30.0 °F 25% 29.91 in 10.0 mi Calm Calm - N/A   Clear
8:52 AM 73.9 °F 28.9 °F 19% 29.92 in 10.0 mi WNW 4.6 mph - N/A   Clear
9:52 AM 80.1 °F 25.0 °F 13% 29.92 in 10.0 mi Calm Calm - N/A   Clear
10:52 AM 84.9 °F 21.0 °F 10% 29.92 in 10.0 mi Calm Calm - N/A   Clear
11:52 AM 88.0 °F 27.0 °F 11% 29.91 in 10.0 mi South 10.4 mph - N/A   Clear
12:52 PM 91.0 °F 24.1 °F 9% 29.88 in 10.0 mi SSE 9.2 mph - N/A   Clear
1:52 PM 91.9 °F 21.9 °F 8% 29.86 in 10.0 mi Variable 5.8 mph - N/A   Clear
2:52 PM 93.9 °F 23.0 °F 8% 29.84 in 10.0 mi Variable 6.9 mph - N/A   Clear
3:52 PM 93.9 °F 26.1 °F 9% 29.82 in 10.0 mi ESE 12.7 mph 20.7 mph N/A   Clear
4:52 PM 93.0 °F 26.1 °F 9% 29.81 in 10.0 mi ESE 10.4 mph - N/A   Clear
5:52 PM 91.0 °F 24.1 °F 9% 29.80 in 10.0 mi SE 9.2 mph - N/A   Clear
6:52 PM 84.9 °F 28.0 °F 13% 29.80 in 10.0 mi SSE 4.6 mph - N/A   Clear
7:52 PM 75.0 °F 32.0 °F 21% 29.82 in 10.0 mi SSW 5.8 mph - N/A   Clear
8:52 PM 69.1 °F 35.1 °F 29% 29.85 in 10.0 mi ENE 5.8 mph - N/A   Clear
9:52 PM 66.9 °F 35.1 °F 31% 29.86 in 10.0 mi NNW 4.6 mph - N/A   Clear
10:52 PM 61.0 °F 35.1 °F 38% 29.87 in 10.0 mi NW 4.6 mph - N/A   Clear
11:52 PM 59.0 °F 36.0 °F 42% 29.88 in 10.0 mi NNE 3.5 mph - N/A   Clear